TIANMU-1 08

Last updated on Sun Mar 08 2026 00:02:38 GMT+0000 (Coordinated Universal Time)

1 57400U 23101B 26066.00237819 .00000346 00000+0 14775-4 0 9993 2 57400 97.2717 118.7901 0006380 134.2174 225.9592 15.29204229146020
UTC large
Height (km)
Speed (km/s)
/
Latitude / Longitude
Inclination (degrees)
Orbital Period (minutes)
Azimuth
Elevation
Range (km)
Doppler Factor

Next 0 passes for location: London (51.5072 / 0.1276)

Sorry there are no passes over London.